STARLINK-11227, 60303

Orbit data source: Space-Track

STARLINK-11227, 60303 is a payload satellite owned by SpaceX/Seattle (US) in LEO that was launched on Sun, 28 Jul 2024 UTC via an FALCON 9 launch vehicle from the Air Force Western Test Range (AFWTR). Payload-class satellites include a variety of spacecraft equipped with specific instruments for various scientific and technological missions. These include communications satellites like Starlink; space stations such as the ISS; scientific satellites like the Hubble; Earth observation satellites from companies like Planet Labs, Umbra, and HawkEye 360; GPS; miniature CubeSats for education and research; and military/defense satellites.

Loading next visibility...
Identifier
60303, 2024-133C
Orbit
LEO
Country
Flag of USUS
Related business
Manufacturer
SpaceX/Seattle
Mission
Operational Commercial Communications
Bus & Motor
STARLINK V2MD, Unknown motor
Mass
960 kg wet, ~910 kg dry
Launch date (UTC)
2024-07-28 (2 years ago)
Launch vehicle
FALCON 9
Launch site
Air Force Western Test Range (AFWTR)
Object type
Payload
Rocket body
Debris
Shape & HBR
Box + 2 Pan, 18.1 m
Radar Cross Section
36.964 m², Large (>1 m²)

Expand to show TLE details & history
Last TLE update: 1 day ago

TLE from 1 day ago
0 STARLINK-11227
1 60303U 24133C   26170.82137276 -.00000672  00000-0 -69503-6 0  9993
2 60303  53.1588   2.8540 0000770  77.6188 282.4916 15.69710139109851
Epoch: 2026-06-19T19:42Z
TLE epoch observation values (Epoch: 2026-06-19T19:42:46.606Z)
Latitude
-0.00003°
Longitude
159.11494°
Altitude
360.529 km
Speed
7.694 km/s
True Right ascension
00h 11m 24s
True Declination
0° 00' 00"
Sunlit
Object was in daylight at epoch
Visualization orbit readout
Latitude
Unknown
Longitude
Unknown
Altitude
Unknown
Speed
Unknown
Apparent Right ascension
Unknown
Apparent Declination
Unknown
Sunlit
N/A
Visualization observer readout
Local Sidereal Time
07:16:23
Azimuth
Unknown
Elevation
Unknown
Doppler factor
Unknown
Orbital elements
Apogee altitude
360.506 km
Perigee altitude
359.468 km
Semi-major axis
6,738.124 km
Eccentricity
0.00008
Inclination
53.1588°
RAAN
2.854°
Arg. of periapsis
77.6188°
True anomaly
282.48299°
Mean anomaly
282.4916°
Eccentric anomaly
282.48729°
Mean motion
3.92405 °/min
Orbital period
91.74 mins
BSTAR
-6.9503e-7
Loading maneuver chart data...
Computing Atmospheric mass density...
Loading historical data...
Loading historical data...
Loading historical data...
Loading historical data...
Loading historical data...
Loading historical data...
Loading historical data...

Documentation

Showing up to 5 results
|